Find Alice Lee

NORAD ID: 52747 Int'l Des: 2022-057 Owner: URUGUS Country: UY Constellation: satellogic decayed
LEOCIRCULARRETROGRADE
Vis

Historical Track — 19. März 2026

3D-Globus wird geladen...

Über Alice Lee

Beschreibung wird geladen...

Höhenverlauf

Loading altitude history...

Zweizeiliger Elementsatz

1 52747U 22057R 26078.05972793 .09026957 26219-5 27979-3 0 9996
2 52747 97.4903 229.3695 0012309 276.4437 83.5463 16.43911746213561
Epoch: 19. März 2026 • Age: 688 hours

Aktueller Status

Position data unavailable
Startdatum 25. Mai 2022
Alter 3.8 years
Verglühungsdatum 19. März 2026
Typ earth observation

Technische Details

Klassifizierung Payload
Masse 41.50 kg
Trockenmasse 38.50 kg
Gesamtmasse 41.50 kg
Länge 0.81 m
Durchmesser 0.51 m
Spannweite 0.81 m
Form Box
Hersteller URUGUS
Bus-Typ Newsat V
Phasenstatus Reentered
Besitzer/Staat URUGUS/UY

Most Searched